Printer-friendly version

IAU Minor Planet Center

Minor Planet Center

MPEC 2005-Q10 : COMET C/2005 N1 (JUELS-HOLVORCEM)

The following Minor Planet Electronic Circular may be linked-to from your own Web pages, but must not otherwise be redistributed electronically.


Read MPEC 2005-Q09 Read MPEC 2005-Q11


M.P.E.C. 2005-Q10                                Issued 2005 Aug. 22, 19:11 UT

     The Minor Planet Electronic Circulars contain information on unusual
         minor planets and routine data on comets.  They are published
   on behalf of Commission 20 of the International Astronomical Union by the
          Minor Planet Center, Smithsonian Astrophysical Observatory,
                          Cambridge, MA 02138, U.S.A.

                  Supported in part by the Brinson Foundation
             Prepared using the Tamkin Foundation Computer Network

                              MPC@CFA.HARVARD.EDU
          URL http://cfa-www.harvard.edu/iau/mpc.html  ISSN 1523-6714

                       COMET C/2005 N1 (JUELS-HOLVORCEM)

Observations:
    CK05N010  C2005 08 04.72389 06 33 20.42 +52 11 16.3                 EQ010349
    CK05N010  C2005 08 04.72553 06 33 21.26 +52 11 17.5                 EQ010349
    CK05N010  C2005 08 04.72720 06 33 22.11 +52 11 18.6          12.6 T EQ010349
    CK05N010  C2005 08 21.11944 08 42 47.06 +50 46 03.8          14.3 N EQ010232
    CK05N010  C2005 08 21.12079 08 42 47.52 +50 46 03.0          14.2 N EQ010232
    CK05N010  C2005 08 21.12213 08 42 48.03 +50 46 02.1          14.3 N EQ010232

Observer details:
232 Masquefa Observatory.  Observer E. Reina.  0.25-m f/3.3 Schmidt-Cassegrain
    + CCD.
349 Ageo.  Observer K. Kadota.  0.25-m f/5.0 reflector + CCD.

Orbital elements:
    C/2005 N1 (Juels-Holvorcem)
T 2005 Aug. 22.0207 TT                                  MPC
q   1.125734             (2000.0)            P               Q
                   Peri.   80.0249      +0.1379446      -0.9894550
                   Node     3.2494      +0.2693654      -0.0054276
e   1.0            Incl.   51.1772      +0.9531073      +0.1447391
From 77 observations 2005 July 3-Aug. 21.

Ephemeris:
    C/2005 N1 (Juels-Holvorcem)
Date    TT    R. A. (2000) Decl.     Delta      r     Elong.  Phase   m1    m2
2005 08 18    08 19.83   +51 40.1    1.642    1.128    42.5    37.4  13.1
2005 08 23    08 55.92   +50 06.8    1.665    1.126    41.4    36.4  13.1
2005 08 28    09 28.20   +48 01.8    1.695    1.130    40.2    35.2  13.2
2005 09 02    09 56.54   +45 34.6    1.731    1.140    39.0    33.8  13.3
2005 09 07    10 21.22   +42 53.9    1.771    1.155    37.9    32.4  13.4
2005 09 12    10 42.67   +40 06.4    1.814    1.176    36.9    30.9  13.5
2005 09 17    11 01.41   +37 17.1    1.859    1.201    36.0    29.4  13.6
2005 09 22    11 17.89   +34 29.6    1.906    1.231    35.3    28.1  13.8
2005 09 27    11 32.50   +31 46.0    1.952    1.265    34.8    26.9  14.0

Brian G. Marsden             (C) Copyright 2005 MPC           M.P.E.C. 2005-Q10

Read MPEC 2005-Q09 Read MPEC 2005-Q11


Our Web policy. Index to the CBAT/MPC/ICQ pages.


Valid HTML 4.01!